Flag for Germany Weather past 2 weeks in Menden (Sauerland), North Rhine-Westphalia, Germany

Now
64 °F

Scattered showers. Scattered clouds.


Feels Like: 64 °F
Forecast: 47 / 70 °F
Wind: 3 mph from North

Location: Dortmund / Wickede


UV Index: 3 (Moderate)

Visibility: N/A


Pressure: 30.09 "Hg

Humidity: 56%

Dew point: 48 °F

Location of Menden (Sauerland)Location

Historic Weather in Menden (Sauerland)

°F

Menden (Sauerland) temperature yesterday

Maximum temperature yesterday: 66 °F (at 5:20 PM)
Minimum temperature yesterday: 45 °F (at 5:20 AM)
Average temperature yesterday: 57 °F

Past Weeks' High & Low Weather Summary

 TemperatureHumidityPressure
High68 °F (Apr 20, 2:20 PM)94% (Apr 21, 8:20 PM)30.45 "Hg (Apr 21, 8:20 PM)
Low30 °F (Apr 16, 5:20 AM)29% (Apr 17, 3:50 PM)29.65 "Hg (Apr 21, 2:50 PM)
Average51 °F66%30.04 "Hg
* Reported Apr 8 12:20 PM — Apr 23 12:50 PM, Menden (Sauerland), Weather by CustomWeather, © 2014

Note: Actual official high and low records may vary slightly from our data, if they occured in-between our weather recording intervals... More about our weather records

Advertising

Historic Weather Conditions — Data for Previous 24 hours

 ConditionsComfort  
Time TempWeatherWind HumidityBarometerVisibility
12:50 PM
Apr 23
63 °FSunny.3 mph68%30.09 "Hg10 mi
12:20 PM64 °FSunny.2 mph56%30.09 "Hg10 mi
11:50 AM64 °FSunny.3 mph56%30.12 "Hg10 mi
11:20 AM63 °FSunny.2 mph59%30.12 "Hg10 mi
10:50 AM63 °FSunny.1 mph64%30.09 "Hg10 mi
10:20 AM61 °FSunny.1 mph63%30.09 "Hg10 mi
9:50 AM61 °FSunny.3 mph63%30.09 "Hg10 mi
9:20 AM57 °FSunny.6 mph72%30.09 "Hg10 mi
8:50 AM55 °FSunny.2 mph72%30.09 "Hg10 mi
8:20 AM52 °FPassing clouds.5 mph82%30.09 "HgN/A
7:50 AM50 °FSunny.9 mph82%30.07 "Hg10 mi
7:20 AM50 °FSunny.10 mph82%30.07 "Hg10 mi
6:50 AM48 °FClear.8 mph87%30.07 "Hg10 mi
6:20 AM46 °FClear.8 mph87%30.07 "Hg10 mi
5:50 AM48 °FClear.9 mph87%30.07 "Hg10 mi
5:20 AM48 °FClear.9 mph87%30.07 "Hg10 mi
9:50 PM
Apr 22
52 °FClear.7 mph77%29.98 "Hg10 mi
9:20 PM57 °FSunny.5 mph72%29.98 "Hg10 mi
8:50 PM59 °FPassing clouds.3 mph63%29.95 "HgN/A
8:20 PM57 °FSunny.3 mph63%29.95 "Hg10 mi
7:50 PM57 °FSunny.5 mph67%29.92 "Hg10 mi
7:20 PM61 °FSunny.6 mph55%29.92 "Hg10 mi
6:50 PM63 °FSunny.6 mph52%29.92 "Hg10 mi
6:20 PM64 °FPassing clouds.7 mph49%29.92 "HgN/A
5:50 PM64 °FPassing clouds.6 mph49%29.89 "HgN/A
5:20 PM66 °FPassing clouds.7 mph49%29.89 "HgN/A
4:50 PM64 °FPassing clouds.7 mph46%29.89 "HgN/A
4:20 PM64 °FPassing clouds.9 mph52%29.89 "HgN/A
3:50 PM64 °FPassing clouds.7 mph52%29.89 "HgN/A
3:20 PM63 °FPassing clouds.8 mph56%29.89 "HgN/A
2:50 PM64 °FPassing clouds.8 mph56%29.89 "HgN/A
2:20 PM64 °FPassing clouds.8 mph56%29.89 "HgN/A
Weather by CustomWeather, © 2014

See weather overview